Flag for Guinea Weather past 2 weeks in Boké, Guinea

Now
77 °F

Clear.


Feels Like: 79 °F
Forecast: 70 / 99 °F
Wind: 5 mph from West

Location: Conakry / Gbessia

Current Time: Apr 21, 2015 at 5:48:14 AM

Latest Report: Apr 21, 2015 at 5:00 AM


Visibility: 10 mi

Pressure: 29.83 "Hg

Humidity: 79%

Dew point: 70 °F

Location of BokéLocation

Historic Weather in Boké — Graph

°F

Boké temperature yesterday

Maximum temperature yesterday: 90 °F (at 1:00 PM)
Minimum temperature yesterday: 75 °F (at 5:00 AM)
Average temperature yesterday: 81 °F

Past Weeks' High & Low Weather Summary

 TemperatureHumidityPressure
High100 °F (Apr 13, 7:00 PM)100% (Apr 6, 4:00 AM)32.55 "Hg (Apr 6, 4:00 AM)
Low68 °F (Apr 15, 11:00 AM)28% (Apr 9, 4:00 PM)29.77 "Hg (Apr 7, 5:00 PM)
Average82 °F74%29.88 "Hg
* Reported Apr 6 4:00 AM — Apr 21 4:00 AM, Boké, Weather by CustomWeather, © 2015

Note: Actual official high and low records may vary slightly from our data, if they occured in-between our weather recording intervals... More about our weather records

Advertising

Boké weather history for previous 24 hours

 ConditionsComfort  
Time TempWeatherWind HumidityBarometerVisibility
4:00 AM
Tue, Apr 21
77 °FClear.2 mph65%29.83 "Hg10 mi
3:00 AM77 °FClear.No wind54%29.83 "Hg10 mi
2:00 AM81 °FClear.No wind54%29.86 "Hg10 mi
1:00 AM81 °FClear.No wind54%29.86 "Hg10 mi
12:00 AM81 °FClear.No wind70%29.89 "Hg10 mi
11:00 PM
Mon, Apr 20
77 °FClear.2 mph54%29.89 "Hg10 mi
10:00 PM79 °FClear.2 mph84%29.86 "Hg10 mi
9:00 PM81 °FClear.5 mph45%29.83 "Hg10 mi
8:00 PM82 °FClear.7 mph48%29.83 "Hg10 mi
7:00 PM82 °FHaze.7 mph48%29.80 "Hg4 mi
6:00 PM86 °FSunny.9 mph52%29.80 "Hg10 mi
5:00 PM88 °FSunny.9 mph43%29.80 "Hg10 mi
4:00 PM88 °FSunny.9 mph38%29.83 "Hg10 mi
3:00 PM90 °FSunny.12 mph46%29.83 "Hg10 mi
2:00 PM90 °FSunny.7 mph46%29.86 "Hg10 mi
1:00 PM90 °FSunny.9 mph46%29.89 "Hg10 mi
12:00 PM86 °FSunny.9 mph62%32.55 "Hg10 mi
11:00 AM84 °FSunny.5 mph70%29.89 "Hg10 mi
10:00 AM82 °FHaze.7 mph74%29.92 "Hg5 mi
9:00 AM81 °FFog.5 mph79%29.89 "Hg2 mi
8:00 AM77 °FPassing clouds.No wind89%29.86 "HgN/A
7:00 AM77 °FPassing clouds.2 mph89%29.86 "HgN/A
6:00 AM75 °FPassing clouds.2 mph94%29.86 "HgN/A
5:00 AM75 °FClear.No wind94%29.83 "Hg10 mi
Weather by CustomWeather, © 2015

See weather overviewHow to use our weather pages